Flag for Micronesia Weather past 2 weeks in Colonia, Yap, Micronesia

Now
86 °F

Broken clouds.


Feels Like: 98 °F
Forecast: 78 / 89 °F
Wind: 8 mph from East

Location: Yap Island

Current Time: Jul 24, 2014 at 3:29:26 PM

Latest Report: Jul 24, 2014 at 2:50 PM


Visibility: 12 mi

Pressure: 29.70 "Hg

Humidity: 75%

Dew point: 77 °F

Location of ColoniaLocation

Historic Weather in Colonia — Graph

°F

Colonia temperature yesterday

Maximum temperature yesterday: 89 °F (at 10:50 AM)
Minimum temperature yesterday: 76 °F (at 8:54 PM)
Average temperature yesterday: 81 °F

Past Weeks' High & Low Weather Summary

 TemperatureHumidityPressure
High97 °F (Jul 19, 6:57 AM)95% (Jul 16, 5:50 AM)29.88 "Hg (Jul 16, 5:50 AM)
Low75 °F (Jul 15, 10:53 PM)58% (Jul 11, 1:50 PM)29.69 "Hg (Jul 18, 5:50 PM)
Average82 °F83%29.79 "Hg
* Reported Jul 9 2:50 PM — Jul 24 1:50 PM, Colonia, Weather by CustomWeather, © 2014

Note: Actual official high and low records may vary slightly from our data, if they occured in-between our weather recording intervals... More about our weather records

Advertising

Colonia weather history for previous 24 hours

 ConditionsComfort  
Time TempWeatherWind HumidityBarometerVisibility
1:50 PM
Jul 24
87 °FBroken clouds.8 mph76%29.71 "Hg12 mi
12:54 PM86 °FBroken clouds.6 mph76%29.70 "Hg12 mi
11:51 AM86 °FBroken clouds.6 mph77%29.74 "Hg12 mi
10:50 AM84 °FBroken clouds.8 mph81%29.76 "Hg12 mi
9:50 AM84 °FBroken clouds.8 mph80%29.76 "Hg12 mi
8:50 AM83 °FScattered showers. More clouds than sun.5 mph83%29.76 "Hg12 mi
7:51 AM80 °FMore clouds than sun.No wind89%29.75 "Hg12 mi
6:51 AM78 °FPartly cloudy.No wind94%29.71 "Hg12 mi
5:51 AM78 °FPartly cloudy.No wind91%29.71 "Hg12 mi
4:54 AM79 °FPartly cloudy.No wind87%29.71 "Hg12 mi
3:52 AM80 °FPartly cloudy.6 mph86%29.72 "Hg12 mi
2:50 AM80 °FPartly cloudy.6 mph87%29.75 "Hg12 mi
1:53 AM79 °FPartly cloudy.7 mph88%29.76 "Hg12 mi
12:50 AM79 °FMostly cloudy.9 mph88%29.75 "Hg12 mi
11:50 PM
Jul 23
78 °FMostly cloudy.8 mph89%29.79 "Hg12 mi
10:50 PM78 °FMostly cloudy.12 mph88%29.80 "Hg12 mi
8:54 PM76 °FSprinkles. Overcast.12 mph94%29.78 "Hg9 mi
6:50 PM77 °FSprinkles. Cloudy.8 mph92%29.78 "Hg9 mi
3:50 PM78 °FSprinkles. Cloudy.9 mph90%29.75 "Hg10 mi
Weather by CustomWeather, © 2014

See weather overviewHow to use our weather pages